Date String (YYYY-MM-DD hh:mm:ss) UTC,Instrument flags,Ambient pressure (hPa),Sample flow (lpm),Bypass flow (lpm),Sample temperature (°C),Ambient temperature (°C),ASC tube jacket temperature (°C),LED temperature (°C),Box temperature (°C),Sample RH (%),Span deviation,Mass concentration (μg/m³),Mass concentration (μg/m³),Mass concentration (μg/m³)
DateTimeUTC,F1_M11,P_M11,Q1_M11,Q2_M11,T1_M11,T2_M11,T3_M11,T4_M11,T5_M11,U1_M11,ZSPAN_M11,X0_M11,X2_M11,X1_M11
2021-11-04 16:00:00,,0829.3,5.01,0.00,25.6,24.8,00.0,34.4,27.5,18.0,0002.1,0008.01,0004.66,0004.34
2021-11-04 16:01:00,,0829.3,5.00,0.00,25.6,24.8,00.0,34.4,27.5,18.0,0002.2,0007.88,0004.53,0004.21
2021-11-04 16:02:00,,0829.2,4.99,0.00,25.6,24.9,00.0,34.4,27.5,17.7,0002.2,0007.69,0004.41,0004.11
2021-11-04 16:03:00,,0829.2,5.00,0.00,25.6,24.9,00.0,34.5,27.5,17.7,0002.5,0007.59,0004.33,0004.02
2021-11-04 16:04:00,,0829.2,5.00,0.00,25.6,24.9,00.0,34.5,27.5,17.6,0003.1,0007.47,0004.25,0003.93
2021-11-04 16:05:00,,0829.2,5.01,0.00,25.6,24.9,00.0,34.5,27.6,17.4,0000.0,0007.32,0004.15,0003.86
2021-11-04 16:06:00,,0829.2,5.00,0.00,25.6,25.0,00.0,34.5,27.6,17.5,0000.0,0007.15,0004.13,0003.84
2021-11-04 16:07:00,,0829.2,5.00,0.00,25.7,25.0,00.0,34.5,27.6,17.4,0001.5,0006.51,0004.14,0003.86
2021-11-04 16:08:00,,0829.2,5.00,0.00,25.7,25.0,00.0,34.6,27.6,17.4,0000.0,0006.55,0004.17,0003.88
2021-11-04 16:09:00,,0829.2,4.99,0.00,25.7,25.0,00.0,34.6,27.6,17.3,0000.0,0006.74,0004.21,0003.90
2021-11-04 16:10:00,,0829.2,5.01,0.00,25.7,25.0,00.0,34.6,27.6,17.1,0000.1,0006.84,0004.24,0003.94
2021-11-04 16:11:00,,0829.2,5.01,0.00,25.8,25.1,00.0,34.6,27.7,17.2,0001.7,0007.03,0004.26,0003.96
2021-11-04 16:12:00,,0829.2,4.99,0.00,25.8,25.1,00.0,34.6,27.7,17.3,0002.8,0006.98,0004.26,0003.98
2021-11-04 16:13:00,,0829.1,5.01,0.00,25.8,25.1,00.0,34.7,27.7,17.2,0002.7,0006.95,0004.26,0003.98
2021-11-04 16:14:00,,0829.1,5.00,0.00,25.8,25.1,00.0,34.7,27.7,17.6,0002.3,0006.96,0004.28,0003.99
2021-11-04 16:15:00,,0829.1,4.99,0.00,25.8,25.2,00.0,34.7,27.8,17.5,0001.9,0006.91,0004.27,0003.98
2021-11-04 16:16:00,,0829.2,5.00,0.00,25.9,25.2,00.0,34.7,27.8,17.4,0000.7,0006.85,0004.27,0003.99
2021-11-04 16:17:00,,0829.1,5.00,0.00,25.9,25.2,00.0,34.7,27.8,17.6,0000.1,0006.80,0004.27,0003.99
2021-11-04 16:18:00,,0829.2,5.01,0.00,25.9,25.2,00.0,34.8,27.8,17.2,0000.7,0006.70,0004.25,0003.97
2021-11-04 16:19:00,,0829.2,4.99,0.00,25.9,25.2,00.0,34.8,27.9,17.1,0001.9,0006.75,0004.25,0003.96
2021-11-04 16:20:00,,0829.2,5.01,0.00,26.0,25.3,00.0,34.8,27.9,16.7,0002.0,0006.61,0004.23,0003.95
2021-11-04 16:21:00,,0829.2,4.99,0.00,26.0,25.3,00.0,34.8,27.9,16.7,0003.1,0007.59,0004.25,0003.95
2021-11-04 16:22:00,,0829.2,5.02,0.00,26.0,25.3,00.0,34.9,27.9,16.7,0003.6,0007.61,0004.28,0003.95
2021-11-04 16:23:00,,0829.1,5.00,0.00,26.0,25.3,00.0,34.9,28.0,16.6,0004.2,0007.61,0004.28,0003.95
2021-11-04 16:24:00,,0829.1,5.00,0.00,26.0,25.4,00.0,34.9,28.0,16.6,0005.0,0007.61,0004.29,0003.95
2021-11-04 16:25:00,,0829.1,5.00,0.00,26.1,25.4,00.0,34.9,28.0,16.4,0005.2,0007.54,0004.26,0003.94
2021-11-04 16:26:00,,0829.1,5.00,0.00,26.1,25.4,00.0,34.9,28.0,15.8,0005.7,0007.96,0004.27,0003.96
2021-11-04 16:27:00,,0829.1,4.98,0.00,26.1,25.4,00.0,35.0,28.0,15.7,0005.8,0008.41,0004.29,0003.98
2021-11-04 16:28:00,,0829.0,5.00,0.00,26.1,25.5,00.0,35.0,28.1,16.7,0005.9,0008.54,0004.32,0003.99
2021-11-04 16:29:00,,0829.0,5.01,0.00,26.2,25.5,00.0,35.0,28.1,16.8,0005.4,0008.79,0004.35,0003.99
2021-11-04 16:30:00,,0829.0,4.98,0.00,26.2,25.5,00.0,35.0,28.1,16.7,0004.8,0008.92,0004.37,0004.00
2021-11-04 16:31:00,,0829.1,5.01,0.00,26.2,25.5,00.0,35.1,28.2,16.4,0004.6,0008.92,0004.36,0004.00
2021-11-04 16:32:00,,0829.1,5.00,0.00,26.2,25.6,00.0,35.1,28.2,16.4,0004.1,0008.61,0004.36,0004.02
2021-11-04 16:33:00,,0829.1,4.99,0.00,26.3,25.6,00.0,35.1,28.2,16.2,0003.9,0008.51,0004.37,0004.03
2021-11-04 16:34:00,,0829.0,5.00,0.00,26.3,25.6,00.0,35.1,28.2,16.0,0004.1,0008.77,0004.38,0004.06
2021-11-04 16:35:00,,0829.1,5.01,0.00,26.3,25.6,00.0,35.1,28.3,15.9,0003.6,0008.87,0004.43,0004.10
2021-11-04 16:36:00,,0829.1,4.99,0.00,26.3,25.6,00.0,35.2,28.3,15.8,0003.1,0008.94,0004.46,0004.13
2021-11-04 16:37:00,,0829.1,5.01,0.00,26.4,25.7,00.0,35.2,28.3,16.1,0003.3,0008.80,0004.46,0004.14
2021-11-04 16:38:00,,0829.1,5.00,0.00,26.4,25.7,00.0,35.2,28.3,16.0,0003.6,0008.14,0004.47,0004.13
2021-11-04 16:39:00,,0829.1,4.99,0.00,26.4,25.7,00.0,35.2,28.4,16.1,0003.7,0008.09,0004.48,0004.14
2021-11-04 16:40:00,,0829.0,5.01,0.00,26.4,25.7,00.0,35.3,28.4,16.0,0003.7,0008.01,0004.51,0004.16
2021-11-04 16:41:00,,0829.1,4.99,0.00,26.5,25.8,00.0,35.3,28.4,16.0,0003.8,0008.11,0004.53,0004.17
2021-11-04 16:42:00,,0829.0,5.00,0.00,26.5,25.8,00.0,35.3,28.4,15.9,0003.7,0008.15,0004.52,0004.18
2021-11-04 16:43:00,,0829.1,5.00,0.00,26.5,25.8,00.0,35.3,28.4,15.9,0003.5,0008.38,0004.51,0004.17
2021-11-04 16:44:00,,0829.0,5.00,0.00,26.5,25.8,00.0,35.4,28.5,15.8,0002.6,0008.73,0004.48,0004.14
2021-11-04 16:45:00,,0829.1,5.00,0.00,26.6,25.9,00.0,35.4,28.5,15.6,0001.5,0008.73,0004.45,0004.10
2021-11-04 16:46:00,,0829.1,4.99,0.00,26.6,25.9,00.0,35.4,28.5,15.8,0001.8,0008.70,0004.41,0004.05
2021-11-04 16:47:00,,0829.0,5.00,0.00,26.6,25.9,00.0,35.4,28.5,15.8,0001.8,0008.59,0004.34,0004.00
2021-11-04 16:48:00,,0829.0,5.02,0.00,26.6,25.9,00.0,35.4,28.5,16.1,0001.2,0008.60,0004.32,0003.98
2021-11-04 16:49:00,,0829.0,4.98,0.00,26.6,25.9,00.0,35.5,28.6,16.1,0000.5,0008.55,0004.28,0003.94
2021-11-04 16:50:00,,0829.0,5.01,0.00,26.7,26.0,00.0,35.5,28.6,16.1,0000.1,0008.55,0004.24,0003.91
2021-11-04 16:51:00,,0828.9,5.00,0.00,26.7,26.0,00.0,35.5,28.6,15.9,0000.0,0008.45,0004.18,0003.89
2021-11-04 16:52:00,,0828.9,5.00,0.00,26.7,26.0,00.0,35.5,28.6,15.9,0000.0,0008.24,0004.15,0003.87
2021-11-04 16:53:00,,0828.9,4.99,0.00,26.7,26.0,00.0,35.6,28.7,15.9,0000.1,0008.24,0004.16,0003.86
2021-11-04 16:54:00,,0828.9,5.02,0.00,26.7,26.1,00.0,35.6,28.7,15.9,0000.4,0007.92,0004.13,0003.83
2021-11-04 16:55:00,,0828.9,4.98,0.00,26.8,26.1,00.0,35.6,28.7,15.9,0001.0,0007.47,0004.12,0003.81
2021-11-04 16:56:00,,0828.9,5.00,0.00,26.8,26.1,00.0,35.6,28.8,15.9,0001.2,0007.08,0004.12,0003.82
2021-11-04 16:57:00,,0828.9,5.02,0.00,26.8,26.1,00.0,35.7,28.8,15.6,0000.7,0006.98,0004.09,0003.81
2021-11-04 16:58:00,,0828.9,5.00,0.00,26.9,26.1,00.0,35.7,28.8,15.5,0000.3,0007.49,0004.11,0003.80
2021-11-04 16:59:00,,0828.9,5.01,0.00,26.9,26.2,00.0,35.7,28.8,15.6,0000.6,0007.60,0004.13,0003.80
